Regional Weather Roundup
Issued by NWS Sterling, VA

Home | Current Version | Previous Version | Graphics & Text | Print | Product List | Glossary On
Versions: 1 2 3 4 5 6 7 8 9 10 11 12 13 14 15 16 17 18 19 20 21 22 23 24 25 26 27 28 29 30 31 32 33 34 35 36 37 38 39 40 41 42 43 44 45 46 47 48 49 50
000
ASUS41 KLWX 202310
RWRLWX

REGIONAL WEATHER ROUNDUP
NATIONAL WEATHER SERVICE BALTIMORE MD/WASHINGTON DC
600 PM EST SAT DEC 20 2014

Note: "FAIR" indicates few or no clouds below 12,000 feet
with no significant weather and/or obstructions to visibility.
 TC=TEMPERATURE CELSIUS

 * =Non NWS site. Station does not report precipitation (e.g. rain,
    snow, etc.), thunder, or fog.

DCZ001-MDZ009-015-VAZ040>042-051-053>054-210000-
WASHINGTON METRO

CITY           SKY/WX    TMP DP  RH WIND       PRES   REMARKS
WASHINGTON NAT CLOUDY    39  20  46 W5        30.30R
DULLES         CLOUDY    32  23  69 CALM      30.28R
ANDREWS AFB    CLOUDY    35  22  57 W6        30.27R
FT BELVOIR     CLOUDY    34  24  64 S1        30.30R
QUANTICO       CLOUDY    36  22  56 W3        30.32R
COLLEGE PARK*  CLOUDY    36  25  64 CALM      30.28R
LEESBURG*      CLOUDY    34  28  80 CALM      30.28S
MANASSAS*      CLOUDY    36  25  64 CALM      30.29
GAITHERSBURG*  CLOUDY    34  19  55 CALM      30.30S

$$

MDZ006>007-011-014-210000-
BALTIMORE METRO

CITY           SKY/WX    TMP DP  RH WIND       PRES   REMARKS
BWI AIRPORT    CLOUDY    34  23  64 CALM      30.28R
MD SCIENCE CTR   N/A     36  22  56 MISG      30.27R
ANNAPOLIS      PTCLDY    34  23  64 CALM      30.29R
FORT MEADE*    CLOUDY    32  25  74 CALM      30.30R

$$

MDZ012-015-019>023-210000-
MARYLAND EASTERN SHORE

CITY           SKY/WX    TMP DP  RH WIND       PRES   REMARKS
OCEAN CITY     MOCLDY    33  26  75 CALM      30.28R
SALISBURY      CLOUDY    37  25  61 SW3       30.28R
BAY BRIDGE AP*   N/A     34  23  64 CALM      30.29S
CAMBRIDGE*     PTCLDY    36  28  75 CALM      30.28S
EASTON*        MOCLDY    36  27  69 CALM      30.32R

$$

MDZ017>025-210000-
SOUTHERN MARYLAND

CITY           SKY/WX    TMP DP  RH WIND       PRES   REMARKS
PATUXENT RIVER CLOUDY    34  24  67 SW5       30.29R
ST INIGOES     CLOUDY    36  21  54 NW3       30.29R
LEONARDTOWN*   CLOUDY    34  25  69 CALM      30.31R

$$

MDZ003>005-210000-
NORTH CENTRAL MARYLAND

CITY           SKY/WX    TMP DP  RH WIND       PRES   REMARKS
FREDERICK*     CLEAR     34  21  60 CALM      30.30R
HAGERSTOWN APT CLOUDY    33  20  58 CALM      30.26R
WESTMINSTER*   CLOUDY    30  21  69 CALM      30.25R

$$

MDZ501>502-210000-
WESTERN MARYLAND

CITY           SKY/WX    TMP DP  RH WIND       PRES   REMARKS
OAKLAND*       CLOUDY    27  27 100 CALM      30.13F
CUMBERLAND*    MOCLDY    34  23  64 CALM      30.29R

$$

VAZ025>031-210000-
SHENANDOAH VALLEY

CITY           SKY/WX    TMP DP  RH WIND       PRES   REMARKS
WINCHESTER*    CLOUDY    34  21  60 CALM      30.25S
FRONT ROYAL*   CLOUDY    32  23  69 CALM      30.25R
LURAY*         CLOUDY    36  28  75 CALM      30.24R
NEW MARKET*    CLOUDY    33  26  75 CALM      30.23R
STAUNTON*      CLOUDY    35  25  68 CALM      30.23R
WAYNESBORO*    CLOUDY    34  24  68 CALM      30.20R

$$

WVZ021-048>050-054>055-210000-
EASTERN WEST VIRGINIA PANHANDLE

CITY           SKY/WX    TMP DP  RH WIND       PRES   REMARKS
MARTINSBURG    CLOUDY    32  20  61 CALM      30.27R
PETERSBURG*    CLOUDY    34  23  65 CALM      30.24S

$$

VAZ036>039-050-210000-
CENTRAL FOOTHILLS

CITY           SKY/WX    TMP DP  RH WIND       PRES   REMARKS
CHARLOTTESVILL CLOUDY    36  24  62 SE3       30.25R
CULPEPER*      CLOUDY    34  28  80 CALM      30.29R
ORANGE*        CLOUDY    34  28  80 CALM      30.29R
GORDONSVILLE*  CLOUDY    34  25  69 CALM      30.27R
WARRENTON*     CLOUDY    35  30  81 CALM      30.28R

$$

VAZ055>057-210000-
NORTH AND CENTRAL PIEDMONT

CITY           SKY/WX    TMP DP  RH WIND       PRES   REMARKS
FREDERICKSBRG* CLOUDY    37  25  64 CALM      30.28S
STAFFORD*      CLOUDY    34  22  61 CALM      30.33S

$$

NCZ024-NYZ072-PAZ021-071-VAZ022-071-210000-
OTHER REGIONAL OBSERVATIONS

CITY           SKY/WX    TMP DP  RH WIND       PRES   REMARKS
NEW YORK CITY  CLOUDY    33  20  58 VRB3      30.30R
PHILADELPHIA   CLOUDY    35  21  56 N5        30.29S
PITTSBURGH     MOCLDY    29  20  69 N6        30.24R
ROANOKE        CLOUDY    36  25  64 SE6       30.24R
RICHMOND       CLOUDY    38  22  52 CALM      30.28R
RALEIGH        CLOUDY    38  34  85 CALM      30.27R FOG

$$

ANZ530>537-210000-
MARINE OBSERVATIONS

STATION/POSITION TIME  TEMP    WIND        PRES
                       AIR SEA DIR/SP/G
                 (UTC) (F)     (DEG/KT/KT) (MB)
THOMAS PT LIGHT  2300   36 41   80/  3/  4 1026.9R
BALT KEY BRIDGE  2300   35      70/  3/  3 1025.4R
COVE POINT       2300   34      CALM  /  2 1025.5R
LEWISETTA        2300   36 41     CALM     1025.3S
SOLOMONS ISLAND  2300      43                N/A

$$




USA.gov is the U.S. government's official web portal to all federal, state and local government web resources and services.